Location: Cheyres
(46.8153°N, 6.7877°E)
Time: 00:23:35
(UTC+00:00)

Cosmos 1933 - Pass Details

Date: 11 May 2021
Orbit: 547 x 562 km, 82.5° (Epoch: 23 June)

Event Time Altitude Azimuth Distance (km) Brightness Sun altitude
Rises 20:06:47 0° 195° (SSW) 2,725 6.6 -10.7°
Reaches altitude 10° 20:08:58 10° 199° (SSW) 1,833 5.8 -11.0°
Maximum altitude 20:12:58 63° 281° (W) 621 3.8 -11.5°
Drops below altitude 10° 20:16:59 10° 3° (N) 1,839 6.6 -12.0°
Sets 20:19:11 0° 7° (N) 2,736 7.4 -12.3°
